TimeAKST,TemperatureF,Dew PointF,Humidity,Sea Level PressureIn,VisibilityMPH,Wind Direction,Wind SpeedMPH,Gust SpeedMPH,PrecipitationIn,Events,Conditions,WindDirDegrees,DateUTC
12:46 AM,24.8,19.4,80,29.54,10.0,WSW,12.7,-,0.00,,Overcast,250,2012-03-03 09:46:00
12:53 AM,26.1,19.0,75,29.55,10.0,WSW,13.8,-,0.00,,Overcast,250,2012-03-03 09:53:00
1:53 AM,24.1,18.0,77,29.58,10.0,WSW,15.0,-,N/A,,Overcast,240,2012-03-03 10:53:00
2:24 AM,24.8,19.4,80,29.58,6.0,WSW,17.3,-,0.00,Snow,Light Snow,240,2012-03-03 11:24:00
3:53 AM,21.9,18.0,85,29.61,3.0,SW,23.0,29.9,0.00,Snow,Light Snow,230,2012-03-03 12:53:00
4:12 AM,21.2,17.6,86,29.61,4.0,SW,20.7,29.9,0.00,Snow,Light Snow,230,2012-03-03 13:12:00
4:53 AM,21.0,16.0,81,29.63,7.0,WSW,17.3,26.5,0.00,,Overcast,240,2012-03-03 13:53:00
5:05 AM,19.4,15.8,86,29.63,6.0,WSW,20.7,28.8,N/A,,Overcast,240,2012-03-03 14:05:00
5:53 AM,19.0,14.0,81,29.65,10.0,SW,19.6,-,N/A,,Overcast,230,2012-03-03 14:53:00
6:53 AM,19.9,14.0,78,29.66,10.0,SW,16.1,-,N/A,,Overcast,230,2012-03-03 15:53:00
7:53 AM,21.0,16.0,81,29.67,10.0,SW,15.0,-,N/A,,Overcast,230,2012-03-03 16:53:00
8:53 AM,19.9,16.0,85,29.69,5.0,SW,17.3,-,0.00,Snow,Light Snow,230,2012-03-03 17:53:00
9:14 AM,19.4,15.8,86,29.69,3.0,SW,20.7,25.3,0.00,Snow,Light Snow,220,2012-03-03 18:14:00
9:53 AM,19.0,16.0,88,29.72,3.0,SW,20.7,24.2,0.00,Snow,Light Snow,230,2012-03-03 18:53:00
10:53 AM,19.0,15.1,85,29.74,3.0,WSW,15.0,20.7,0.00,Snow,Light Snow,240,2012-03-03 19:53:00
11:42 AM,17.6,15.8,93,29.74,1.0,WSW,15.0,23.0,0.00,Snow,Light Snow,240,2012-03-03 20:42:00
11:53 AM,18.0,14.0,84,29.75,1.0,WSW,16.1,-,0.00,Snow,Light Snow,240,2012-03-03 20:53:00
12:27 PM,17.6,14.0,86,29.75,1.0,SW,18.4,-,0.00,Snow,Light Snow,230,2012-03-03 21:27:00
12:53 PM,17.1,14.0,88,29.75,0.5,SW,16.1,25.3,0.00,Fog-Snow,Snow,230,2012-03-03 21:53:00
1:53 PM,16.0,14.0,92,29.75,0.5,SW,24.2,29.9,0.00,Fog-Snow,Snow,230,2012-03-03 22:53:00
2:53 PM,15.1,12.9,91,29.76,0.5,SW,20.7,28.8,0.00,Fog-Snow,Snow,230,2012-03-03 23:53:00
3:53 PM,15.1,12.9,91,29.75,0.2,SW,21.9,-,0.01,Fog-Snow,Snow,230,2012-03-04 00:53:00
4:53 PM,15.1,12.9,91,29.74,0.2,SW,23.0,31.1,0.01,Fog-Snow,Snow,220,2012-03-04 01:53:00
5:13 PM,15.8,14.0,93,29.73,0.2,SW,24.2,-,0.00,Fog-Snow,Snow,230,2012-03-04 02:13:00
5:53 PM,14.0,12.0,92,29.73,0.5,SW,20.7,-,0.01,Fog-Snow,Light Snow,220,2012-03-04 02:53:00
6:53 PM,14.0,12.9,95,29.73,0.2,WSW,19.6,-,0.01,Fog-Snow,Heavy Snow,240,2012-03-04 03:53:00
7:07 PM,14.0,12.2,93,29.72,1.0,SW,18.4,-,0.01,Snow,Light Snow,230,2012-03-04 04:07:00
7:45 PM,14.0,10.4,86,29.72,2.5,WSW,8.1,-,0.01,Snow,Light Snow,240,2012-03-04 04:45:00
7:53 PM,14.0,10.0,84,29.73,2.0,WSW,10.4,-,0.01,Snow,Light Snow,240,2012-03-04 04:53:00
8:48 PM,14.0,10.4,86,29.72,3.0,WSW,11.5,-,0.00,Snow,Light Snow,250,2012-03-04 05:48:00
8:53 PM,14.0,10.9,88,29.73,2.0,WSW,10.4,-,0.00,Snow,Light Snow,240,2012-03-04 05:53:00
9:13 PM,14.0,10.4,86,29.72,1.2,WSW,9.2,-,0.01,Snow,Light Snow,250,2012-03-04 06:13:00
9:53 PM,14.0,12.0,92,29.73,1.5,WSW,10.4,-,0.01,Snow,Light Snow,240,2012-03-04 06:53:00
10:11 PM,14.0,12.2,93,29.72,1.8,WSW,8.1,-,0.00,Snow,Light Snow,250,2012-03-04 07:11:00
10:19 PM,14.0,12.2,93,29.72,2.5,West,6.9,-,0.00,Snow,Light Snow,260,2012-03-04 07:19:00
10:43 PM,15.8,12.2,86,29.73,1.2,WSW,9.2,-,0.01,Snow,Light Snow,240,2012-03-04 07:43:00
10:50 PM,15.8,12.2,86,29.73,1.2,WSW,12.7,-,0.01,Snow,Light Snow,240,2012-03-04 07:50:00
10:53 PM,15.1,12.9,91,29.73,1.2,WSW,12.7,-,0.01,Snow,Light Snow,240,2012-03-04 07:53:00
11:46 PM,17.6,15.8,93,29.72,2.0,Variable,4.6,21.9,0.01,Snow,Light Snow,0,2012-03-04 08:46:00
11:53 PM,16.0,15.1,96,29.73,3.0,NNW,3.5,-,0.01,Snow,Light Snow,330,2012-03-04 08:53:00